Total_Precipitation_Accumulation
0.00 0.02 0.03 0.04 0.05 0.05 0.03 0.03 0.05 0.05 0.06 0.05 0.02 0.01 0.01 0.01 0.00 0.00 0.00 0.00 0.00 0.00 0.00 0.00 0.00 0.00 0.01 0.01 0.01 0.02 0.03 0.04 0.04 0.04 0.05 0.05 0.06 0.09 0.11 0.12 0.13 0.19 0.26 0.29
0.00 0.01 0.03 0.04 0.07 0.05 0.02 0.02 0.01 0.01 0.02 0.03 0.04 0.03 0.03 0.02 0.02 0.02 0.02 0.02 0.02 0.02 0.02 0.03 0.03 0.03 0.03 0.04 0.04 0.05 0.08 0.10 0.09 0.09 0.10 0.09 0.10 0.11 0.12 0.14 0.17 0.20 0.23 0.26
0.00 0.02 0.02 0.06 0.06 0.04 0.02 0.02 0.02 0.03 0.04 0.05 0.06 0.06 0.08 0.10 0.11 0.09 0.09 0.08 0.07 0.07 0.05 0.04 0.03 0.03 0.03 0.03 0.03 0.04 0.07 0.12 0.13 0.13 0.13 0.10 0.10 0.12 0.14 0.18 0.22 0.26 0.27 0.29
0.01 0.02 0.05 0.05 0.04 0.03 0.03 0.03 0.05 0.09 0.12 0.14 0.17 0.18 0.21 0.26 0.23 0.16 0.10 0.07 0.05 0.03 0.01 0.01 0.01 0.01 0.02 0.02 0.03 0.03 0.05 0.12 0.17 0.19 0.17 0.15 0.17 0.20 0.23 0.26 0.29 0.32 0.33 0.36
0.02 0.03 0.04 0.03 0.05 0.05 0.06 0.08 0.12 0.20 0.27 0.30 0.30 0.29 0.25 0.18 0.13 0.08 0.04 0.02 0.01 0.01 0.01 0.01 0.01 0.02 0.03 0.04 0.04 0.06 0.09 0.13 0.19 0.25 0.26 0.26 0.27 0.31 0.35 0.38 0.37 0.37 0.39 0.43
0.03 0.05 0.07 0.07 0.10 0.12 0.12 0.21 0.27 0.32 0.31 0.23 0.16 0.15 0.11 0.06 0.03 0.02 0.01 0.01 0.01 0.01 0.01 0.02 0.03 0.04 0.05 0.07 0.09 0.12 0.14 0.17 0.23 0.31 0.36 0.35 0.37 0.41 0.43 0.47 0.46 0.43 0.41 0.45
0.06 0.07 0.08 0.12 0.15 0.19 0.31 0.39 0.36 0.33 0.25 0.18 0.15 0.13 0.09 0.05 0.03 0.02 0.01 0.01 0.01 0.01 0.03 0.06 0.08 0.12 0.16 0.19 0.21 0.21 0.23 0.25 0.30 0.36 0.43 0.42 0.44 0.47 0.50 0.51 0.52 0.52 0.51 0.51
0.16 0.22 0.22 0.18 0.20 0.31 0.37 0.32 0.28 0.23 0.18 0.13 0.10 0.07 0.05 0.05 0.04 0.03 0.02 0.02 0.02 0.03 0.03 0.06 0.11 0.18 0.25 0.26 0.27 0.29 0.32 0.33 0.36 0.43 0.44 0.43 0.55 0.61 0.66 0.68 0.65 0.63 0.68 0.65
0.27 0.28 0.24 0.23 0.22 0.23 0.25 0.23 0.19 0.17 0.14 0.10 0.07 0.07 0.06 0.04 0.04 0.03 0.02 0.02 0.02 0.03 0.04 0.06 0.11 0.17 0.23 0.25 0.27 0.28 0.32 0.34 0.39 0.48 0.55 0.58 0.65 0.69 0.78 0.83 0.80 0.76 0.77 0.80
0.20 0.23 0.22 0.21 0.21 0.17 0.14 0.11 0.08 0.07 0.08 0.08 0.09 0.10 0.11 0.06 0.04 0.03 0.02 0.02 0.03 0.05 0.08 0.09 0.10 0.14 0.18 0.25 0.32 0.36 0.37 0.39 0.43 0.50 0.56 0.68 0.78 0.78 0.80 0.84 0.87 0.86 0.83 0.79
0.17 0.22 0.26 0.25 0.21 0.14 0.09 0.08 0.06 0.04 0.04 0.04 0.04 0.04 0.04 0.04 0.03 0.02 0.02 0.03 0.06 0.10 0.13 0.12 0.12 0.13 0.15 0.22 0.34 0.42 0.42 0.41 0.45 0.50 0.57 0.70 0.83 0.86 0.77 0.78 0.81 0.78 0.72 0.70
0.12 0.16 0.21 0.22 0.16 0.08 0.05 0.05 0.07 0.05 0.03 0.02 0.01 0.01 0.01 0.01 0.01 0.02 0.03 0.07 0.11 0.14 0.15 0.15 0.15 0.16 0.17 0.23 0.36 0.46 0.46 0.43 0.46 0.50 0.58 0.67 0.80 0.86 0.71 0.58 0.56 0.56 0.50 0.45
0.09 0.13 0.13 0.13 0.13 0.12 0.07 0.05 0.03 0.01 0.01 0.01 0.00 0.00 0.00 0.00 0.01 0.03 0.07 0.14 0.20 0.23 0.22 0.21 0.22 0.23 0.23 0.29 0.44 0.60 0.57 0.52 0.52 0.53 0.57 0.62 0.72 0.84 0.87 0.71 0.51 0.45 0.37 0.29
0.10 0.10 0.10 0.08 0.06 0.05 0.02 0.01 0.01 0.00 0.00 0.00 0.00 0.00 0.01 0.01 0.03 0.08 0.14 0.23 0.29 0.31 0.29 0.30 0.30 0.28 0.29 0.33 0.42 0.67 0.76 0.64 0.55 0.54 0.59 0.64 0.70 0.78 0.88 0.93 0.84 0.67 0.45 0.27
0.10 0.06 0.05 0.03 0.02 0.01 0.01 0.00 0.00 0.00 0.00 0.01 0.01 0.01 0.01 0.03 0.07 0.12 0.20 0.32 0.41 0.40 0.37 0.36 0.36 0.34 0.33 0.34 0.38 0.48 0.68 0.71 0.63 0.57 0.60 0.67 0.71 0.76 0.84 0.90 0.98 0.94 0.72 0.44
0.12 0.08 0.04 0.03 0.02 0.01 0.01 0.01 0.01 0.01 0.01 0.01 0.01 0.02 0.03 0.05 0.10 0.16 0.26 0.41 0.60 0.62 0.53 0.48 0.45 0.39 0.37 0.38 0.41 0.45 0.52 0.49 0.49 0.56 0.61 0.67 0.73 0.76 0.80 0.89 0.95 0.97 0.86 0.62
0.09 0.05 0.03 0.02 0.02 0.01 0.01 0.01 0.01 0.01 0.01 0.02 0.03 0.04 0.07 0.12 0.20 0.28 0.36 0.46 0.57 0.62 0.60 0.59 0.53 0.43 0.40 0.41 0.44 0.45 0.50 0.44 0.34 0.45 0.58 0.64 0.71 0.76 0.78 0.83 0.90 0.92 0.83 0.54
0.04 0.03 0.02 0.02 0.02 0.02 0.02 0.02 0.02 0.02 0.03 0.04 0.06 0.09 0.14 0.24 0.42 0.54 0.59 0.63 0.64 0.56 0.53 0.55 0.46 0.37 0.34 0.34 0.37 0.41 0.52 0.51 0.38 0.41 0.54 0.60 0.63 0.75 0.79 0.81 0.83 0.85 0.75 0.49
0.03 0.03 0.03 0.03 0.03 0.02 0.02 0.02 0.02 0.03 0.05 0.08 0.14 0.18 0.22 0.32 0.48 0.62 0.68 0.78 0.85 0.78 0.62 0.52 0.40 0.32 0.29 0.25 0.24 0.33 0.45 0.50 0.41 0.39 0.49 0.48 0.55 0.73 0.77 0.76 0.79 0.78 0.64 0.51
0.03 0.03 0.03 0.02 0.02 0.01 0.01 0.02 0.04 0.06 0.08 0.14 0.22 0.28 0.33 0.38 0.49 0.61 0.64 0.71 0.85 0.87 0.73 0.55 0.37 0.29 0.24 0.19 0.19 0.27 0.39 0.47 0.39 0.32 0.37 0.46 0.58 0.68 0.73 0.71 0.71 0.73 0.62 0.51
0.02 0.01 0.01 0.01 0.01 0.01 0.01 0.02 0.06 0.10 0.13 0.19 0.28 0.37 0.45 0.44 0.46 0.55 0.69 0.76 0.71 0.75 0.73 0.63 0.44 0.29 0.20 0.19 0.20 0.28 0.39 0.46 0.38 0.29 0.30 0.39 0.53 0.64 0.69 0.69 0.68 0.66 0.57 0.48
0.00 0.00 0.00 0.00 0.00 0.00 0.01 0.03 0.07 0.10 0.15 0.25 0.33 0.40 0.49 0.48 0.48 0.47 0.51 0.64 0.68 0.77 0.73 0.66 0.54 0.38 0.25 0.19 0.20 0.26 0.35 0.41 0.37 0.28 0.25 0.32 0.45 0.55 0.61 0.63 0.63 0.60 0.53 0.47
0.00 0.00 0.00 0.00 0.00 0.00 0.01 0.03 0.04 0.07 0.19 0.33 0.39 0.45 0.51 0.47 0.51 0.61 0.56 0.47 0.53 0.66 0.60 0.53 0.52 0.42 0.29 0.22 0.21 0.26 0.36 0.44 0.42 0.31 0.26 0.32 0.38 0.43 0.48 0.50 0.51 0.51 0.48 0.42
0.00 0.00 0.00 0.00 0.00 0.01 0.02 0.03 0.03 0.06 0.17 0.29 0.29 0.36 0.42 0.42 0.43 0.47 0.48 0.48 0.51 0.58 0.50 0.45 0.43 0.40 0.37 0.32 0.31 0.33 0.38 0.42 0.40 0.30 0.26 0.29 0.31 0.32 0.39 0.47 0.51 0.51 0.45 0.36
0.01 0.01 0.01 0.01 0.02 0.03 0.05 0.04 0.04 0.07 0.21 0.33 0.29 0.29 0.30 0.34 0.44 0.47 0.45 0.41 0.45 0.49 0.45 0.44 0.40 0.37 0.35 0.41 0.45 0.43 0.39 0.38 0.34 0.28 0.25 0.25 0.28 0.31 0.37 0.47 0.51 0.46 0.37 0.34
0.01 0.01 0.01 0.01 0.03 0.04 0.05 0.06 0.06 0.08 0.24 0.46 0.42 0.34 0.32 0.30 0.33 0.40 0.45 0.43 0.43 0.48 0.44 0.40 0.35 0.35 0.35 0.44 0.49 0.45 0.38 0.35 0.33 0.30 0.28 0.28 0.33 0.37 0.43 0.50 0.49 0.37 0.29 0.27
0.02 0.02 0.02 0.02 0.03 0.03 0.05 0.07 0.08 0.10 0.24 0.50 0.56 0.41 0.33 0.31 0.33 0.39 0.45 0.47 0.45 0.44 0.41 0.36 0.32 0.31 0.32 0.36 0.37 0.37 0.36 0.35 0.36 0.35 0.32 0.31 0.32 0.37 0.38 0.40 0.36 0.28 0.25 0.23